TimeEDT,TemperatureF,Dew PointF,Humidity,Sea Level PressureIn,VisibilityMPH,Wind Direction,Wind SpeedMPH,Gust SpeedMPH,PrecipitationIn,Events,Conditions,WindDirDegrees,DateUTC
12:54 AM,46.0,33.1,61,30.22,10.0,SSW,3.5,-,N/A,,Overcast,210,2013-03-30 04:54:00
1:54 AM,46.9,33.1,59,30.20,10.0,Calm,Calm,-,N/A,,Overcast,0,2013-03-30 05:54:00
2:54 AM,43.0,33.1,68,30.19,10.0,Calm,Calm,-,N/A,,Overcast,0,2013-03-30 06:54:00
3:54 AM,41.0,33.1,73,30.19,10.0,Calm,Calm,-,N/A,,Overcast,0,2013-03-30 07:54:00
4:54 AM,39.9,33.1,77,30.19,10.0,Calm,Calm,-,N/A,,Overcast,0,2013-03-30 08:54:00
5:54 AM,39.9,32.0,73,30.19,10.0,Calm,Calm,-,N/A,,Clear,0,2013-03-30 09:54:00
6:54 AM,36.0,30.0,79,30.20,10.0,Calm,Calm,-,N/A,,Clear,0,2013-03-30 10:54:00
7:54 AM,39.9,33.1,77,30.22,10.0,Calm,Calm,-,N/A,,Partly Cloudy,0,2013-03-30 11:54:00
8:54 AM,51.1,34.0,52,30.23,10.0,NW,4.6,-,N/A,,Mostly Cloudy,320,2013-03-30 12:54:00
9:54 AM,57.0,33.1,40,30.22,10.0,NW,3.5,-,N/A,,Clear,320,2013-03-30 13:54:00
10:54 AM,60.1,26.1,27,30.22,10.0,Variable,4.6,-,N/A,,Clear,0,2013-03-30 14:54:00
11:54 AM,61.0,23.0,23,30.21,10.0,West,5.8,-,N/A,,Clear,260,2013-03-30 15:54:00
12:54 PM,63.0,23.0,22,30.19,10.0,Variable,3.5,-,N/A,,Clear,0,2013-03-30 16:54:00
1:54 PM,63.0,24.1,23,30.17,10.0,West,8.1,-,N/A,,Clear,280,2013-03-30 17:54:00
2:54 PM,64.9,24.1,21,30.14,10.0,WNW,10.4,19.6,N/A,,Clear,290,2013-03-30 18:54:00
3:54 PM,64.9,23.0,20,30.14,10.0,NW,10.4,-,N/A,,Clear,320,2013-03-30 19:54:00
4:54 PM,66.0,23.0,20,30.12,10.0,NW,11.5,-,N/A,,Clear,320,2013-03-30 20:54:00
5:54 PM,61.0,28.9,30,30.13,10.0,SE,10.4,-,N/A,,Clear,130,2013-03-30 21:54:00
6:54 PM,57.0,30.0,36,30.13,10.0,ESE,9.2,-,N/A,,Clear,110,2013-03-30 22:54:00
7:54 PM,52.0,30.9,45,30.15,10.0,East,5.8,-,N/A,,Clear,100,2013-03-30 23:54:00
8:54 PM,50.0,30.0,46,30.17,10.0,ESE,5.8,-,N/A,,Clear,120,2013-03-31 00:54:00
9:54 PM,51.1,28.9,43,30.17,10.0,SSE,8.1,-,N/A,,Clear,150,2013-03-31 01:54:00
10:54 PM,51.1,30.0,44,30.16,10.0,SSE,6.9,-,N/A,,Clear,150,2013-03-31 02:54:00
11:54 PM,50.0,30.9,48,30.15,10.0,SE,6.9,-,N/A,,Clear,140,2013-03-31 03:54:00